Weather History for Le Mars, IA

Change the Weather History Date:

Sunday, May 4, 2014

  Actual Average Record
Temperature  
Mean Temperature 50 °F -  
Max Temperature 60 °F 71 °F 89 °F (1980)
Min Temperature 41 °F 43 °F 28 °F (2005)
Degree Days  
Heating Degree Days 14    
Moisture  
Dew Point 37 °F    
Average Humidity 61    
Maximum Humidity 81    
Minimum Humidity 44    
Precipitation  
Precipitation 0.00 in - - ()
Sea Level Pressure  
Sea Level Pressure 29.97 in    
Wind  
Wind Speed 11 mph (ENE)    
Max Wind Speed 23 mph    
Max Gust Speed 31 mph    
Visibility 10 miles    
Events      
Averages and records for this station are not official NWS values.
T = Trace of Precipitation, MM = Missing Value Source: NWS Daily Summary

Daily Weather History Graph

Daily Weather History Graph

Search for Another Location

Airport:

Trip Planner

Search our weather history database for the weather conditions in past years. The results will help you decide how hot, cold, wet, or windy it might be!

Date:

Astronomy

May. 04, 2014 Rise Set
Actual Time 6:15 AM CDT 8:28 PM CDT
Civil Twilight 5:43 AM CDT 9:00 PM CDT
Nautical Twilight 5:05 AM CDT 9:38 PM CDT
Astronomical Twilight 4:22 AM CDT 10:21 PM CDT
Moon 10:39 AM CDT (5/4) 12:35 AM CDT (5/4)
Length of Visible Light 15h 16m
Length of Day
14h 13m
Waxing Crescent, 28% of the Moon is Illuminated
May 4
Waxing Crescent
May 6
First Quarter
May 14
Full
May 21
Last Quarter
May 28
New

Hourly Weather History & Observations

Time (CDT) Temp. Windchill Dew Point Humidity Pressure Visibility Wind Dir Wind Speed Gust Speed Precip Events Conditions
12:15 AM 44.6 °F 42.2 °F 39.2 °F 81% 29.97 in 10.0 mi North 4.6 mph - N/A   Unknown
12:35 AM 44.6 °F 42.2 °F 39.2 °F 81% 29.98 in 10.0 mi NNE 4.6 mph - N/A   Unknown
12:55 AM 48.2 °F - 37.4 °F 66% 29.99 in 10.0 mi NNE 6.9 mph - N/A   Unknown
1:15 AM 48.2 °F - 37.4 °F 66% 29.99 in 10.0 mi NE 8.1 mph - N/A   Unknown
1:35 AM 48.2 °F - 35.6 °F 62% 29.99 in 10.0 mi NE 8.1 mph - N/A   Unknown
1:55 AM 48.2 °F - 35.6 °F 62% 30.00 in 10.0 mi NE 8.1 mph - N/A   Unknown
2:15 AM 48.2 °F - 35.6 °F 62% 30.00 in 10.0 mi NE 9.2 mph 16.1 mph N/A   Unknown
2:35 AM 48.2 °F - 35.6 °F 62% 30.00 in 10.0 mi NE 12.7 mph - N/A   Unknown
2:55 AM 48.2 °F - 37.4 °F 66% 30.01 in 10.0 mi NE 12.7 mph - N/A   Unknown
3:15 AM 48.2 °F - 35.6 °F 62% 30.01 in 10.0 mi NNE 15.0 mph - N/A   Unknown
3:35 AM 46.4 °F 38.3 °F 33.8 °F 62% 30.01 in 10.0 mi NE 23.0 mph 31.1 mph N/A   Unknown
3:55 AM 44.6 °F 37.2 °F 35.6 °F 71% 30.00 in 10.0 mi NE 17.3 mph 29.9 mph N/A   Unknown
4:15 AM 42.8 °F 35.4 °F 35.6 °F 76% 30.02 in 5.0 mi NNE 15.0 mph 26.5 mph N/A   Haze
4:35 AM 42.8 °F 35.4 °F 35.6 °F 76% 30.02 in 6.0 mi NNE 15.0 mph - N/A   Haze
4:55 AM 41.0 °F 32.2 °F 33.8 °F 76% 30.03 in 9.0 mi NE 18.4 mph - N/A   Unknown
5:15 AM 41.0 °F 32.8 °F 33.8 °F 76% 30.02 in 10.0 mi NE 16.1 mph 26.5 mph N/A   Unknown
5:35 AM 41.0 °F 33.5 °F 33.8 °F 76% 30.02 in 10.0 mi NE 13.8 mph - N/A   Unknown
5:55 AM 41.0 °F 33.1 °F 32.0 °F 70% 30.03 in 10.0 mi NE 15.0 mph 21.9 mph N/A   Unknown
6:15 AM 41.0 °F 35.2 °F 32.0 °F 70% 30.06 in 10.0 mi NE 9.2 mph 18.4 mph N/A   Unknown
6:35 AM 41.0 °F 33.9 °F 32.0 °F 70% 30.06 in 10.0 mi NE 12.7 mph - N/A   Unknown
6:55 AM 41.0 °F 33.1 °F 33.8 °F 76% 30.06 in 10.0 mi NE 15.0 mph 20.7 mph N/A   Unknown
7:15 AM 41.0 °F 32.8 °F 33.8 °F 76% 30.05 in 10.0 mi NE 16.1 mph - N/A   Unknown
7:35 AM 41.0 °F 32.2 °F 33.8 °F 76% 30.04 in 10.0 mi NE 18.4 mph 26.5 mph N/A   Unknown
7:55 AM 41.0 °F 33.5 °F 33.8 °F 76% 30.05 in 10.0 mi NE 13.8 mph 19.6 mph N/A   Unknown
8:15 AM 41.0 °F 33.9 °F 33.8 °F 76% 30.05 in 10.0 mi ENE 12.7 mph 21.9 mph N/A   Unknown
8:35 AM 42.8 °F 35.8 °F 32.0 °F 66% 30.05 in 10.0 mi ENE 13.8 mph 24.2 mph N/A   Unknown
8:55 AM 42.8 °F 36.6 °F 33.8 °F 70% 30.05 in 10.0 mi ENE 11.5 mph 19.6 mph N/A   Unknown
9:15 AM 42.8 °F 35.4 °F 33.8 °F 70% 30.05 in 10.0 mi ENE 15.0 mph 24.2 mph N/A   Unknown
9:35 AM 42.8 °F 35.1 °F 33.8 °F 70% 30.05 in 10.0 mi NE 16.1 mph 23.0 mph N/A   Unknown
9:55 AM 44.6 °F 38.1 °F 33.8 °F 66% 30.05 in 10.0 mi ENE 13.8 mph 21.9 mph N/A   Unknown
10:15 AM 44.6 °F 38.4 °F 35.6 °F 71% 30.04 in 10.0 mi ENE 12.7 mph 20.7 mph N/A   Unknown
10:35 AM 46.4 °F 39.8 °F 35.6 °F 66% 30.04 in 10.0 mi ENE 16.1 mph - N/A   Unknown
10:55 AM 48.2 °F - 37.4 °F 66% 30.04 in 10.0 mi East 13.8 mph 20.7 mph N/A   Unknown
11:15 AM 48.2 °F - 35.6 °F 62% 30.04 in 10.0 mi ENE 15.0 mph - N/A   Unknown
11:35 AM 50.0 °F - 35.6 °F 58% 30.04 in 10.0 mi ENE 13.8 mph 21.9 mph N/A   Unknown
11:55 AM 51.8 °F - 37.4 °F 58% 30.02 in 10.0 mi ENE 15.0 mph - N/A   Unknown
12:15 PM 51.8 °F - 37.4 °F 58% 30.02 in 10.0 mi ENE 13.8 mph 23.0 mph N/A   Unknown
12:35 PM 53.6 °F - 37.4 °F 54% 30.01 in 10.0 mi East 12.7 mph 20.7 mph N/A   Unknown
12:55 PM 53.6 °F - 37.4 °F 54% 30.01 in 10.0 mi ENE 13.8 mph - N/A   Unknown
1:15 PM 55.4 °F - 37.4 °F 51% 29.99 in 10.0 mi East 16.1 mph 21.9 mph N/A   Unknown
1:35 PM 55.4 °F - 35.6 °F 47% 29.98 in 10.0 mi East 13.8 mph 25.3 mph N/A   Unknown
1:55 PM 57.2 °F - 35.6 °F 44% 29.98 in 10.0 mi ENE 15.0 mph - N/A   Unknown
2:15 PM 57.2 °F - 37.4 °F 48% 29.96 in 10.0 mi East 12.7 mph 23.0 mph N/A   Unknown
2:35 PM 59.0 °F - 37.4 °F 45% 29.95 in 10.0 mi East 12.7 mph 19.6 mph N/A   Unknown
2:55 PM 59.0 °F - 39.2 °F 48% 29.95 in 10.0 mi East 12.7 mph 23.0 mph N/A   Unknown
3:15 PM 59.0 °F - 39.2 °F 48% 29.94 in 10.0 mi East 12.7 mph 24.2 mph N/A   Unknown
3:35 PM 59.0 °F - 39.2 °F 48% 29.94 in 10.0 mi East 12.7 mph 21.9 mph N/A   Unknown
3:55 PM 59.0 °F - 41.0 °F 51% 29.93 in 10.0 mi East 10.4 mph 21.9 mph N/A   Unknown
4:15 PM 59.0 °F - 39.2 °F 48% 29.92 in 10.0 mi ESE 11.5 mph 23.0 mph N/A   Unknown
4:35 PM 60.8 °F - 39.2 °F 45% 29.91 in 10.0 mi East 12.7 mph 23.0 mph N/A   Unknown
4:55 PM 60.8 °F - 39.2 °F 45% 29.90 in 10.0 mi East 15.0 mph 23.0 mph N/A   Unknown
5:15 PM 60.8 °F - 39.2 °F 45% 29.90 in 10.0 mi East 15.0 mph - N/A   Unknown
5:35 PM 60.8 °F - 41.0 °F 48% 29.90 in 10.0 mi East 13.8 mph 20.7 mph N/A   Unknown
5:55 PM 59.0 °F - 39.2 °F 48% 29.89 in 10.0 mi ESE 11.5 mph 19.6 mph N/A   Unknown
6:15 PM 59.0 °F - 39.2 °F 48% 29.89 in 10.0 mi East 12.7 mph 21.9 mph N/A   Unknown
6:35 PM 59.0 °F - 39.2 °F 48% 29.89 in 10.0 mi ESE 12.7 mph 21.9 mph N/A   Unknown
6:55 PM 59.0 °F - 39.2 °F 48% 29.90 in 10.0 mi East 12.7 mph - N/A   Unknown
7:15 PM 59.0 °F - 39.2 °F 48% 29.91 in 10.0 mi East 11.5 mph - N/A   Unknown
7:35 PM 59.0 °F - 39.2 °F 48% 29.90 in 10.0 mi East 10.4 mph 17.3 mph N/A   Unknown
7:55 PM 57.2 °F - 39.2 °F 51% 29.90 in 10.0 mi ENE 9.2 mph - N/A   Unknown
8:15 PM 57.2 °F - 39.2 °F 51% 29.90 in 10.0 mi ENE 10.4 mph - N/A   Unknown
8:35 PM 55.4 °F - 39.2 °F 54% 29.90 in 10.0 mi ENE 9.2 mph 16.1 mph N/A   Unknown
8:55 PM 55.4 °F - 39.2 °F 54% 29.89 in 10.0 mi ENE 9.2 mph - N/A   Unknown
9:15 PM 53.6 °F - 39.2 °F 58% 29.87 in 10.0 mi ENE 11.5 mph 17.3 mph N/A   Unknown
9:35 PM 53.6 °F - 39.2 °F 58% 29.87 in 10.0 mi ENE 10.4 mph 16.1 mph N/A   Unknown
9:55 PM 53.6 °F - 39.2 °F 58% 29.88 in 10.0 mi ENE 9.2 mph - N/A   Unknown
10:15 PM 51.8 °F - 39.2 °F 62% 29.89 in 10.0 mi NE 10.4 mph - N/A   Unknown
10:35 PM 51.8 °F - 37.4 °F 58% 29.89 in 10.0 mi ENE 9.2 mph - N/A   Unknown
10:55 PM 51.8 °F - 39.2 °F 62% 29.89 in 10.0 mi NE 9.2 mph - N/A   Unknown
11:15 PM 50.0 °F - 39.2 °F 66% 29.90 in 10.0 mi NE 9.2 mph - N/A   Unknown
11:55 PM 48.2 °F - 37.4 °F 66% 29.92 in 10.0 mi NNE 6.9 mph - N/A   Unknown